Location: Ottawa
(45.4170°N, 75.7000°W)
Time: 08:18:06
(UTC-04:00)

Iridium 91 - Visible Passes

Search period start: 21 April 2014 00:00
Search period end: 01 May 2014 00:00
Orbit: 775 x 780 km, 86.4° (Epoch: 20 April)

Date Brightness Start Highest point End Pass type
(mag) Time Alt. Az. Time Alt. Az. Time Alt. Az.
21 Apr 7.9 00:28:17 10° NE 00:30:23 13° ENE 00:30:23 13° ENE visible
21 Apr 6.1 02:06:51 10° N 02:10:51 54° N 02:10:51 54° N visible
21 Apr 7.7 03:50:28 10° WNW 03:51:19 11° WNW 03:51:19 11° WNW visible
22 Apr 6.4 01:33:23 10° N 01:37:25 45° NE 01:37:25 45° NE visible
22 Apr 7.3 03:15:05 10° NNW 03:17:53 19° WNW 03:17:53 19° WNW visible
23 Apr 7.0 01:00:12 10° NNE 01:03:58 29° ENE 01:03:58 29° ENE visible
23 Apr 6.7 02:40:51 10° NNW 02:44:26 31° WNW 02:44:26 31° WNW visible
24 Apr 7.6 00:27:26 10° NNE 00:30:32 18° ENE 00:30:32 18° ENE visible
24 Apr 6.2 02:07:01 10° N 02:11:00 48° NW 02:11:00 48° NW visible
24 Apr 8.0 23:56:45 10° ENE 23:56:59 10° ENE 23:57:06 10° ENE visible
25 Apr 6.1 01:33:25 10° N 01:37:34 56° NNE 01:37:34 56° NNE visible
25 Apr 7.6 03:15:59 10° NW 03:18:02 14° WNW 03:18:02 14° WNW visible
26 Apr 6.5 01:00:03 10° N 01:04:08 39° NE 01:04:08 39° NE visible
26 Apr 7.0 02:41:18 10° NNW 02:44:37 24° WNW 02:44:37 24° WNW visible
27 Apr 7.2 00:27:00 10° NNE 00:30:43 25° ENE 00:30:43 25° ENE visible
27 Apr 6.4 02:07:15 10° NNW 02:11:11 39° WNW 02:11:11 39° WNW visible
27 Apr 7.7 23:54:32 10° NE 23:57:18 15° ENE 23:57:18 15° ENE visible
28 Apr 5.9 01:33:31 10° N 01:37:46 59° NNW 01:37:46 59° NNW visible
29 Apr 6.1 01:00:00 10° N 01:04:21 53° NE 01:04:21 53° NE visible
29 Apr 7.4 02:41:57 10° NW 02:44:49 18° WNW 02:44:49 18° WNW visible
30 Apr 6.7 00:26:44 10° NNE 00:30:56 34° ENE 00:30:56 34° ENE visible
30 Apr 6.8 02:07:36 10° NNW 02:11:24 30° WNW 02:11:24 30° WNW visible
30 Apr 7.3 23:53:51 10° NNE 23:57:31 20° ENE 23:57:31 20° ENE visible
